• In Belarus
  • List of Countries
  • For 7 days
  • Water Temperature
  • Satellite Maps
  • Weather Map
  • Weather Widgets
  • user-avatar
    Login

    Hourly Weather L'Île-Perrot

    Today, 10 December, Monday

    Time Temperature Precipitation Wind Pressure Humidity
    00:00 -7°C° 0 mm 3 mps 763 mmHg 86%
    01:00 -7°C° 0 mm 2 mps 763 mmHg 87%
    02:00 -7°C° 0 mm 2 mps 763 mmHg 86%
    03:00 -8°C° 0 mm 2 mps 763 mmHg 86%
    04:00 -9°C° 0 mm 2 mps 764 mmHg 86%
    05:00 -9°C° 0 mm 2 mps 764 mmHg 86%
    06:00 -10°C° 0 mm 2 mps 764 mmHg 86%
    07:00 -9°C° 0 mm 1 mps 765 mmHg 86%
    08:00 -9°C° 0 mm 1 mps 765 mmHg 82%
    09:00 -8°C° 0 mm 1 mps 765 mmHg 78%
    10:00 -7°C° 0 mm 1 mps 765 mmHg 74%
    11:00 -7°C° 0 mm 1 mps 765 mmHg 71%
    12:00 -6°C° 0 mm 1 mps 765 mmHg 68%
    13:00 -6°C° 0 mm 1 mps 765 mmHg 66%
    14:00 -6°C° 0 mm 1 mps 765 mmHg 70%
    15:00 -7°C° 0 mm 1 mps 765 mmHg 74%
    16:00 -7°C° 0 mm 1 mps 765 mmHg 78%
    17:00 -8°C° 0 mm 1 mps 765 mmHg 80%
    18:00 -8°C° 0 mm 1 mps 765 mmHg 82%
    19:00 -8°C° 0 mm 1 mps 765 mmHg 83%
    20:00 -9°C° 0 mm 1 mps 765 mmHg 83%
    21:00 -9°C° 0 mm 1 mps 765 mmHg 84%
    22:00 -9°C° 0 mm 1 mps 765 mmHg 84%
    23:00 -9°C° 0 mm 1 mps 765 mmHg 84%

    Tomorrow, 11 December, Tuesday

    Time Temperature Precipitation Wind Pressure Humidity
    00:00 -9°C° 0 mm 1 mps 765 mmHg 84%
    01:00 -9°C° 0 mm 1 mps 765 mmHg 84%
    02:00 -9°C° 0 mm 1 mps 764 mmHg 84%
    03:00 -9°C° 0 mm 1 mps 764 mmHg 84%
    04:00 -9°C° 0 mm 1 mps 764 mmHg 83%
    05:00 -9°C° 0 mm 1 mps 764 mmHg 83%
    06:00 -9°C° 0 mm 1 mps 764 mmHg 83%
    07:00 -9°C° 0 mm 1 mps 763 mmHg 82%
    08:00 -8°C° 0 mm 1 mps 763 mmHg 81%
    09:00 -7°C° 0 mm 1 mps 763 mmHg 79%
    10:00 -6°C° 0 mm 1 mps 763 mmHg 77%
    11:00 -4°C° 0 mm 1 mps 762 mmHg 77%
    12:00 -3°C° 0 mm 1 mps 761 mmHg 78%
    13:00 -3°C° 0 mm 1 mps 761 mmHg 78%
    14:00 -3°C° 0.1 mm 1 mps 760 mmHg 81%
    15:00 -3°C° 0.1 mm 1 mps 760 mmHg 84%
    16:00 -3°C° 0.1 mm 1 mps 760 mmHg 88%
    17:00 -3°C° 0.1 mm 1 mps 760 mmHg 89%
    18:00 -4°C° 0.1 mm 1 mps 761 mmHg 90%
    19:00 -4°C° 0.1 mm 1 mps 761 mmHg 92%
    20:00 -4°C° 0.1 mm 1 mps 761 mmHg 92%
    21:00 -6°C° 0.1 mm 2 mps 761 mmHg 93%
    22:00 -6°C° 0.1 mm 2 mps 761 mmHg 94%
    23:00 -6°C° 0.1 mm 2 mps 761 mmHg 94%

    Day after tomorrow, 12 December, Wednesday

    Time Temperature Precipitation Wind Pressure Humidity
    00:00 -7°C° 0.1 mm 2 mps 761 mmHg 94%
    01:00 -7°C° 0.1 mm 2 mps 762 mmHg 94%
    02:00 -7°C° 0 mm 2 mps 762 mmHg 92%
    03:00 -9°C° 0 mm 3 mps 762 mmHg 91%
    04:00 -9°C° 0 mm 3 mps 763 mmHg 90%
    05:00 -10°C° 0 mm 3 mps 763 mmHg 88%
    06:00 -10°C° 0 mm 3 mps 764 mmHg 85%
    07:00 -10°C° 0 mm 2 mps 765 mmHg 83%
    08:00 -10°C° 0 mm 2 mps 765 mmHg 79%
    09:00 -10°C° 0 mm 2 mps 766 mmHg 74%
    10:00 -12°C° 0 mm 3 mps 767 mmHg 69%
    11:00 -9°C° 0 mm 2 mps 767 mmHg 69%
    12:00 -9°C° 0 mm 2 mps 767 mmHg 68%
    13:00 -9°C° 0 mm 2 mps 767 mmHg 68%
    14:00 -9°C° 0 mm 2 mps 767 mmHg 72%
    15:00 -10°C° 0 mm 2 mps 767 mmHg 76%
    16:00 -10°C° 0 mm 2 mps 768 mmHg 81%
    17:00 -12°C° 0 mm 2 mps 768 mmHg 82%
    18:00 -12°C° 0 mm 2 mps 769 mmHg 83%
    19:00 -13°C° 0 mm 2 mps 769 mmHg 85%
    20:00 -13°C° 0 mm 2 mps 769 mmHg 84%
    21:00 -13°C° 0 mm 2 mps 769 mmHg 84%
    22:00 -13°C° 0 mm 2 mps 770 mmHg 84%
    23:00 -13°C° 0 mm 2 mps 769 mmHg 84%

    13 December, Thursday

    Time Temperature Precipitation Wind Pressure Humidity
    00:00 -13°C° 0 mm 2 mps 769 mmHg 85%
    01:00 -13°C° 0 mm 2 mps 769 mmHg 85%
    02:00 -13°C° 0 mm 2 mps 769 mmHg 84%
    03:00 -13°C° 0 mm 2 mps 769 mmHg 83%
    04:00 -14°C° 0 mm 3 mps 769 mmHg 83%
    05:00 -13°C° 0 mm 3 mps 769 mmHg 82%
    06:00 -13°C° 0 mm 3 mps 769 mmHg 81%
    07:00 -12°C° 0 mm 3 mps 769 mmHg 80%
    08:00 -10°C° 0 mm 3 mps 768 mmHg 79%
    09:00 -10°C° 0 mm 3 mps 768 mmHg 78%
    10:00 -9°C° 0 mm 3 mps 768 mmHg 78%
    11:00 -7°C° 0.2 mm 2 mps 768 mmHg 81%
    12:00 -6°C° 0.2 mm 2 mps 767 mmHg 84%
    13:00 -5°C° 0.2 mm 2 mps 767 mmHg 88%
    14:00 -5°C° 0.3 mm 2 mps 767 mmHg 90%
    15:00 -5°C° 0.3 mm 2 mps 767 mmHg 92%
    16:00 -5°C° 0.3 mm 2 mps 767 mmHg 94%
    17:00 -3°C° 0.1 mm 1 mps 767 mmHg 94%
    18:00 -3°C° 0.1 mm 1 mps 767 mmHg 94%
    19:00 -3°C° 0.1 mm 1 mps 767 mmHg 94%
    20:00 -2°C° 0 mm 1 mps 767 mmHg 94%
    21:00 -2°C° 0 mm 1 mps 767 mmHg 93%
    22:00 -2°C° 0 mm 1 mps 767 mmHg 93%
    23:00 -2°C° 0 mm 1 mps 767 mmHg 93%

    14 December, Friday

    Time Temperature Precipitation Wind Pressure Humidity
    00:00 -2°C° 0 mm 1 mps 767 mmHg 93%
    01:00 -1°C° 0 mm 1 mps 767 mmHg 92%
    02:00 -2°C° 0 mm 1 mps 767 mmHg 92%
    03:00 -2°C° 0 mm 1 mps 767 mmHg 92%
    04:00 -2°C° 0 mm 1 mps 767 mmHg 92%
    05:00 -2°C° 0 mm 1 mps 767 mmHg 92%
    06:00 -2°C° 0 mm 1 mps 767 mmHg 92%
    07:00 -2°C° 0 mm 1 mps 767 mmHg 92%
    08:00 -1°C° 0 mm 1 mps 767 mmHg 91%
    09:00 -2°C° 0 mm 2 mps 767 mmHg 90%
    10:00 -1°C° 0 mm 2 mps 766 mmHg 89%
    11:00 -1°C° 0 mm 2 mps 766 mmHg 90%
    12:00 +1°C° 0 mm 2 mps 765 mmHg 91%
    13:00 +2°C° 0 mm 2 mps 764 mmHg 92%
    14:00 +1°C° 0 mm 2 mps 763 mmHg 92%
    15:00 +1°C° 0 mm 2 mps 763 mmHg 92%
    16:00 +1°C° 0 mm 2 mps 762 mmHg 92%
    17:00 +1°C° 0 mm 2 mps 762 mmHg 91%
    18:00 +1°C° 0 mm 2 mps 762 mmHg 90%
    19:00 +2°C° 0 mm 1 mps 762 mmHg 90%
    20:00 +2°C° 0.9 mm 1 mps 762 mmHg 91%
    21:00 +3°C° 0.9 mm 1 mps 762 mmHg 93%
    22:00 +3°C° 0.9 mm 1 mps 762 mmHg 94%
    23:00 +2°C° 1.2 mm 2 mps 762 mmHg 95%

    15 December, Saturday

    Time Temperature Precipitation Wind Pressure Humidity
    00:00 +3°C° 1.2 mm 2 mps 761 mmHg 96%
    01:00 +3°C° 1.2 mm 2 mps 761 mmHg 97%
    02:00 +3°C° 0.5 mm 2 mps 761 mmHg 96%
    03:00 +3°C° 0.5 mm 2 mps 760 mmHg 96%
    04:00 +3°C° 0.5 mm 2 mps 760 mmHg 96%
    05:00 +3°C° 0.3 mm 2 mps 761 mmHg 97%
    06:00 +3°C° 0.3 mm 2 mps 761 mmHg 97%
    07:00 +4°C° 0.3 mm 1 mps 761 mmHg 97%
    08:00 +4°C° 0 mm 1 mps 761 mmHg 97%
    09:00 +4°C° 0 mm 1 mps 761 mmHg 97%
    10:00 +4°C° 0 mm 1 mps 762 mmHg 96%
    11:00 +3°C° 0 mm 2 mps 761 mmHg 95%
    12:00 +3°C° 0 mm 2 mps 761 mmHg 94%
    13:00 +2°C° 0 mm 3 mps 760 mmHg 93%
    14:00 +2°C° 0 mm 3 mps 760 mmHg 88%
    15:00 0°C° 0 mm 4 mps 760 mmHg 84%
    16:00 0°C° 0 mm 4 mps 760 mmHg 80%
    17:00 -1°C° 0 mm 5 mps 760 mmHg 78%
    18:00 -1°C° 0 mm 5 mps 760 mmHg 77%
    19:00 -2°C° 0 mm 6 mps 761 mmHg 75%
    20:00 -3°C° 0 mm 6 mps 760 mmHg 75%
    21:00 -3°C° 0 mm 6 mps 760 mmHg 75%
    22:00 -3°C° 0 mm 6 mps 760 mmHg 75%
    23:00 -3°C° 0 mm 6 mps 760 mmHg 75%
    Show more